Date String (YYYY-MM-DD hh:mm:ss) UTC,Instrument flags,Ambient pressure (hPa),Sample flow (lpm),Bypass flow (lpm),Sample temperature (°C),Ambient temperature (°C),ASC tube jacket temperature (°C),LED temperature (°C),Box temperature (°C),Sample RH (%),Span deviation,Mass concentration (μg/m³),Mass concentration (μg/m³),Mass concentration (μg/m³)
DateTimeUTC,F1_M11,P_M11,Q1_M11,Q2_M11,T1_M11,T2_M11,T3_M11,T4_M11,T5_M11,U1_M11,ZSPAN_M11,X0_M11,X2_M11,X1_M11
2021-12-08 12:00:00,,0820.0,5.00,0.00,22.4,23.1,00.0,31.3,24.4,11.7,0000.0,0017.02,0004.86,0003.25
2021-12-08 12:01:00,,0820.0,5.01,0.00,22.5,22.9,00.0,31.3,24.4,11.6,0000.0,0016.11,0004.77,0003.24
2021-12-08 12:02:00,,0819.9,5.01,0.00,22.5,22.7,00.0,31.4,24.4,11.6,0000.0,0014.83,0004.72,0003.21
2021-12-08 12:03:00,,0819.9,4.99,0.00,22.5,22.5,00.0,31.4,24.3,11.5,0000.0,0014.73,0004.65,0003.17
2021-12-08 12:04:00,,0819.9,5.00,0.00,22.5,22.3,00.0,31.4,24.3,11.5,0000.0,0014.85,0004.62,0003.13
2021-12-08 12:05:00,,0819.9,4.99,0.00,22.5,22.2,00.0,31.4,24.2,11.5,0000.0,0015.54,0004.57,0003.08
2021-12-08 12:06:00,,0819.9,5.02,0.00,22.5,22.1,00.0,31.4,24.2,11.5,0000.0,0015.36,0004.41,0002.96
2021-12-08 12:07:00,,0819.9,5.00,0.00,22.5,22.0,00.0,31.4,24.2,11.5,0000.0,0015.03,0004.31,0002.86
2021-12-08 12:08:00,,0820.0,5.00,0.00,22.5,22.0,00.0,31.4,24.2,11.5,0000.0,0013.61,0004.17,0002.73
2021-12-08 12:09:00,,0820.0,5.00,0.00,22.4,21.9,00.0,31.4,24.2,11.5,0000.0,0012.83,0004.06,0002.62
2021-12-08 12:10:00,,0820.0,5.01,0.00,22.4,21.9,00.0,31.4,24.1,11.5,0000.0,0012.62,0003.96,0002.53
2021-12-08 12:11:00,,0820.0,5.00,0.00,22.4,21.8,00.0,31.4,24.1,11.5,0000.0,0013.22,0003.90,0002.44
2021-12-08 12:12:00,,0820.0,5.00,0.00,22.4,21.8,00.0,31.4,24.1,11.5,0000.0,0013.23,0003.84,0002.38
2021-12-08 12:13:00,,0819.9,5.00,0.00,22.4,21.7,00.0,31.4,24.1,11.5,0000.0,0013.64,0003.77,0002.35
2021-12-08 12:14:00,,0819.9,4.99,0.00,22.4,21.7,00.0,31.4,24.1,11.5,0000.0,0013.30,0003.78,0002.35
2021-12-08 12:15:00,,0819.9,5.00,0.00,22.3,21.7,00.0,31.4,24.1,11.5,0000.0,0013.17,0003.71,0002.34
2021-12-08 12:16:00,,0819.9,5.01,0.00,22.4,21.7,00.0,31.4,24.0,11.5,0000.0,0012.46,0003.66,0002.31
2021-12-08 12:17:00,,0820.0,5.01,0.00,22.3,21.7,00.0,31.4,24.0,11.5,0000.0,0011.56,0003.70,0002.30
2021-12-08 12:18:00,,0820.0,5.00,0.00,22.3,21.6,00.0,31.4,24.0,11.5,0000.0,0011.89,0003.64,0002.29
2021-12-08 12:19:00,,0820.0,4.99,0.00,22.3,21.6,00.0,31.4,24.1,11.5,0000.0,0012.33,0003.62,0002.30
2021-12-08 12:20:00,,0820.0,5.00,0.00,22.3,21.6,00.0,31.4,24.1,11.5,0000.0,0012.70,0003.57,0002.28
2021-12-08 12:21:00,,0819.9,5.01,0.00,22.3,21.6,00.0,31.4,24.1,11.5,0000.0,0012.73,0003.52,0002.26
2021-12-08 12:22:00,,0819.9,4.98,0.00,22.3,21.6,00.0,31.4,24.1,11.5,0000.0,0011.80,0003.48,0002.25
2021-12-08 12:23:00,,0819.9,5.01,0.00,22.3,21.6,00.0,31.4,24.1,11.5,0000.0,0011.35,0003.46,0002.21
2021-12-08 12:24:00,,0820.0,4.98,0.00,22.3,21.6,00.0,31.4,24.1,11.5,0000.0,0011.43,0003.48,0002.15
2021-12-08 12:25:00,,0819.9,5.01,0.00,22.3,21.6,00.0,31.3,24.0,11.5,0000.0,0010.90,0003.42,0002.09
2021-12-08 12:26:00,,0819.9,4.99,0.00,22.3,21.6,00.0,31.3,24.0,11.5,0000.0,0010.75,0003.42,0002.05
2021-12-08 12:27:00,,0819.9,5.02,0.00,22.3,21.6,00.0,31.3,24.0,11.5,0000.0,0010.24,0003.43,0002.03
2021-12-08 12:28:00,,0819.9,4.99,0.00,22.3,21.6,00.0,31.3,24.0,11.5,0000.0,0010.08,0003.38,0002.00
2021-12-08 12:29:00,,0820.0,5.00,0.00,22.3,21.6,00.0,31.3,24.0,11.5,0000.0,0009.26,0003.34,0001.97
2021-12-08 12:30:00,,0819.9,5.00,0.00,22.3,21.6,00.0,31.3,24.0,11.5,0000.0,0008.74,0003.37,0001.94
2021-12-08 12:31:00,,0819.8,5.00,0.00,22.3,21.6,00.0,31.3,24.0,11.5,0000.0,0008.36,0003.41,0001.93
2021-12-08 12:32:00,,0819.8,5.01,0.00,22.3,21.6,00.0,31.3,24.0,11.5,0000.0,0008.26,0003.40,0001.92
2021-12-08 12:33:00,,0819.9,4.99,0.00,22.3,21.7,00.0,31.3,24.0,11.5,0000.0,0008.57,0003.42,0001.90
2021-12-08 12:34:00,,0819.9,5.01,0.00,22.4,22.4,00.0,31.4,24.2,11.5,0000.0,0009.67,0003.41,0001.90
2021-12-08 12:35:00,,0820.0,4.99,0.00,22.5,23.1,00.0,31.4,24.5,11.4,0000.0,0009.50,0003.38,0001.89
2021-12-08 12:36:00,,0819.9,4.99,0.00,22.6,23.2,00.0,31.4,24.6,11.3,0000.0,0010.81,0003.43,0001.89
2021-12-08 12:37:00,,0819.9,5.02,0.00,22.7,23.0,00.0,31.5,24.6,11.3,0000.0,0010.92,0003.38,0001.86
2021-12-08 12:38:00,,0819.9,4.99,0.00,22.7,22.8,00.0,31.5,24.6,11.3,0000.0,0011.58,0003.34,0001.85
2021-12-08 12:39:00,,0819.9,4.99,0.00,22.7,22.7,00.0,31.5,24.5,11.3,0000.0,0012.18,0003.33,0001.85
2021-12-08 12:40:00,,0819.9,5.01,0.00,22.7,22.5,00.0,31.5,24.5,11.3,0000.0,0012.26,0003.33,0001.85
2021-12-08 12:41:00,,0819.9,5.00,0.00,22.7,22.4,00.0,31.5,24.5,11.2,0000.0,0012.66,0003.32,0001.86
2021-12-08 12:42:00,,0819.8,4.99,0.00,22.7,22.3,00.0,31.5,24.5,11.2,0000.0,0013.73,0003.36,0001.86
2021-12-08 12:43:00,,0819.8,5.01,0.00,22.7,22.3,00.0,31.5,24.5,11.2,0000.0,0014.53,0003.38,0001.87
2021-12-08 12:44:00,,0819.7,4.99,0.00,22.7,22.2,00.0,31.6,24.5,11.2,0000.0,0014.42,0003.41,0001.88
2021-12-08 12:45:00,,0819.7,5.01,0.00,22.7,22.2,00.0,31.6,24.5,11.2,0000.0,0013.39,0003.42,0001.89
2021-12-08 12:46:00,,0819.6,5.00,0.00,22.7,22.1,00.0,31.6,24.5,11.2,0000.0,0013.71,0003.44,0001.89
2021-12-08 12:47:00,,0819.5,4.99,0.00,22.7,22.1,00.0,31.6,24.5,11.3,0000.0,0013.35,0003.44,0001.91
2021-12-08 12:48:00,,0819.5,5.01,0.00,22.7,22.0,00.0,31.6,24.5,11.2,0000.0,0013.18,0003.47,0001.93
2021-12-08 12:49:00,,0819.5,5.01,0.00,22.7,22.0,00.0,31.6,24.4,11.2,0000.0,0012.41,0003.48,0001.92
2021-12-08 12:50:00,,0819.4,4.99,0.00,22.7,22.0,00.0,31.6,24.4,11.2,0000.0,0011.92,0003.45,0001.91
2021-12-08 12:51:00,,0819.4,5.00,0.00,22.6,21.9,00.0,31.6,24.4,11.2,0000.0,0012.47,0003.49,0001.92
2021-12-08 12:52:00,,0819.4,4.99,0.00,22.6,21.9,00.0,31.6,24.4,11.2,0000.0,0012.23,0003.49,0001.90
2021-12-08 12:53:00,,0819.6,5.00,0.00,22.6,21.9,00.0,31.6,24.4,11.2,0000.0,0011.12,0003.46,0001.88
2021-12-08 12:54:00,,0819.7,5.01,0.00,22.6,21.9,00.0,31.6,24.4,11.2,0000.0,0010.53,0003.47,0001.88
2021-12-08 12:55:00,,0819.7,4.99,0.00,22.6,21.9,00.0,31.6,24.4,11.2,0000.0,0010.58,0003.48,0001.93
2021-12-08 12:56:00,,0819.8,5.00,0.00,22.6,21.9,00.0,31.6,24.3,11.3,0000.0,0010.59,0003.51,0001.98
2021-12-08 12:57:00,,0819.8,5.00,0.00,22.6,21.9,00.0,31.6,24.4,11.3,0000.0,0009.98,0003.54,0002.02
2021-12-08 12:58:00,,0819.8,5.00,0.00,22.6,21.9,00.0,31.6,24.3,11.3,0000.0,0009.44,0003.56,0002.03
2021-12-08 12:59:00,,0819.8,4.99,0.00,22.6,21.9,00.0,31.6,24.3,11.2,0000.0,0009.75,0003.58,0002.05
